| time (UTC) | temp F | wind direction | speed MPH | gust MPH | rain 1hr in | rain 24hr in | rain mn in | humidity % | barometer mb |
| 20260906133318 | 79 | 60 | 2.0 | 8.0 | 0.00 | 0.00 | 0.00 | 94 | 1017.2 |
| 20260906132321 | 79 | 64 | 1.0 | 6.0 | 0.00 | 0.00 | 0.00 | 94 | 1017.1 |
| 20260906131326 | 78 | 74 | 2.0 | 6.0 | 0.00 | 0.00 | 0.00 | 94 | 1017.1 |
| 20260906130325 | 78 | 84 | 3.0 | 5.0 | 0.00 | 0.00 | 0.00 | 95 | 1017.1 |
| 20260906125909 | 77 | 113 | 2.0 | 4.0 | 0.00 | 0.00 | 0.00 | 95 | 1016.9 |
| 20260906124322 | 77 | 85 | 3.0 | 5.0 | 0.00 | 0.00 | 0.00 | 96 | 1016.8 |
| 20260906123340 | 76 | 55 | 2.0 | 4.0 | 0.00 | 0.00 | 0.00 | 96 | 1016.8 |
| 20260906122324 | 76 | 18 | 2.0 | 5.0 | 0.00 | 0.00 | 0.00 | 96 | 1016.7 |
| 20260906121315 | 76 | 23 | 2.0 | 3.0 | 0.00 | 0.00 | 0.00 | 95 | 1016.7 |
| 20260906120315 | 76 | 11 | 2.0 | 4.0 | 0.00 | 0.00 | 0.00 | 95 | 1016.5 |
| 20260906115409 | 76 | 30 | 2.0 | 5.0 | 0.00 | 0.00 | 0.00 | 95 | 1016.5 |
| 20260906114318 | 76 | 54 | 4.0 | 5.0 | 0.00 | 0.00 | 0.00 | 95 | 1016.3 |
| 20260906113337 | 76 | 60 | 2.0 | 4.0 | 0.00 | 0.00 | 0.00 | 94 | 1016.2 |
| 20260906112317 | 76 | 46 | 3.0 | 6.0 | 0.00 | 0.00 | 0.00 | 94 | 1016.1 |
| 20260906111344 | 77 | 63 | 2.0 | 4.0 | 0.00 | 0.00 | 0.00 | 94 | 1016.1 |
| 20260906110337 | 77 | 104 | 1.0 | 6.0 | 0.00 | 0.00 | 0.00 | 94 | 1015.8 |
| 20260906105316 | 77 | 82 | 3.0 | 5.0 | 0.00 | 0.00 | 0.00 | 94 | 1015.7 |
| 20260906104325 | 77 | 86 | 2.0 | 5.0 | 0.00 | 0.00 | 0.00 | 93 | 1015.5 |
| 20260906103323 | 77 | 25 | 3.0 | 6.0 | 0.00 | 0.00 | 0.00 | 93 | 1015.4 |
| 20260906102332 | 77 | 43 | 3.0 | 4.0 | 0.00 | 0.00 | 0.00 | 93 | 1015.4 |
| 20260906101320 | 77 | 73 | 2.0 | 4.0 | 0.00 | 0.00 | 0.00 | 92 | 1015.4 |
| 20260906100338 | 77 | 66 | 3.0 | 5.0 | 0.00 | 0.00 | 0.00 | 93 | 1015.4 |
| 20260906095319 | 77 | 34 | 2.0 | 3.0 | 0.00 | 0.00 | 0.00 | 92 | 1015.5 |
| 20260906094328 | 77 | 63 | 1.0 | 5.0 | 0.00 | 0.00 | 0.00 | 92 | 1015.5 |
| 20260906093410 | 77 | 82 | 2.0 | 6.0 | 0.00 | 0.00 | 0.00 | 91 | 1015.4 |
| 20260906091332 | 77 | 43 | 2.0 | 4.0 | 0.00 | 0.00 | 0.00 | 91 | 1015.4 |
| 20260906090328 | 77 | 68 | 2.0 | 4.0 | 0.00 | 0.00 | 0.00 | 91 | 1015.2 |
| 20260906085317 | 77 | 67 | 2.0 | 4.0 | 0.00 | 0.00 | 0.00 | 91 | 1015.2 |
| 20260906084342 | 77 | 94 | 2.0 | 4.0 | 0.00 | 0.00 | 0.00 | 91 | 1015.2 |
| 20260906083339 | 77 | 87 | 2.0 | 5.0 | 0.00 | 0.00 | 0.00 | 91 | 1015.1 |
| 20260906082340 | 77 | 89 | 2.0 | 5.0 | 0.00 | 0.00 | 0.00 | 91 | 1015.0 |
| 20260906081323 | 77 | 74 | 1.0 | 5.0 | 0.00 | 0.00 | 0.00 | 91 | 1015.0 |
| 20260906080335 | 77 | 91 | 2.0 | 3.0 | 0.00 | 0.00 | 0.00 | 91 | 1015.0 |
| 20260906075640 | 77 | 46 | 2.0 | 4.0 | 0.00 | 0.00 | 0.00 | 91 | 1015.1 |
| 20260906074337 | 77 | 27 | 3.0 | 4.0 | 0.00 | 0.00 | 0.00 | 91 | 1015.1 |
| 20260906073316 | 77 | 37 | 2.0 | 3.0 | 0.00 | 0.00 | 0.00 | 90 | 1015.1 |
| 20260906072322 | 77 | 62 | 2.0 | 4.0 | 0.00 | 0.00 | 0.00 | 90 | 1015.1 |
| 20260906071328 | 77 | 41 | 3.0 | 4.0 | 0.00 | 0.00 | 0.00 | 90 | 1015.3 |
| 20260906070325 | 77 | 11 | 3.0 | 4.0 | 0.00 | 0.00 | 0.00 | 90 | 1015.3 |
| 20260906065328 | 77 | 20 | 2.0 | 4.0 | 0.00 | 0.00 | 0.00 | 89 | 1015.3 |
| 20260906064316 | 77 | 25 | 2.0 | 2.0 | 0.00 | 0.00 | 0.00 | 89 | 1015.2 |
| 20260906063334 | 78 | 16 | 2.0 | 3.0 | 0.00 | 0.00 | 0.00 | 89 | 1015.4 |
| 20260906062313 | 78 | 10 | 2.0 | 3.0 | 0.00 | 0.00 | 0.00 | 88 | 1015.4 |
| 20260906061340 | 78 | 15 | 2.0 | 3.0 | 0.00 | 0.00 | 0.00 | 88 | 1015.6 |
| 20260906060338 | 78 | 13 | 1.0 | 2.0 | 0.00 | 0.00 | 0.00 | 88 | 1015.7 |
| 20260906055344 | 78 | 16 | 2.0 | 2.0 | 0.00 | 0.00 | 0.00 | 87 | 1015.7 |
| 20260906055141 | 78 | 16 | 1.0 | 2.0 | 0.00 | 0.00 | 0.00 | 87 | 1015.8 |
| 20260906053358 | 78 | 11 | 1.0 | 3.0 | 0.00 | 0.00 | 0.00 | 86 | 1015.7 |
| 20260906052339 | 78 | 18 | 2.0 | 3.0 | 0.00 | 0.00 | 0.00 | 86 | 1015.7 |
| 20260906051345 | 79 | 12 | 2.0 | 2.0 | 0.00 | 0.00 | 0.00 | 85 | 1015.6 |
| 20260906050341 | 79 | 11 | 1.0 | 2.0 | 0.00 | 0.00 | 0.00 | 85 | 1015.5 |
| 20260906045337 | 79 | 16 | 1.0 | 2.0 | 0.00 | 0.00 | 0.00 | 84 | 1015.4 |
| 20260906044405 | 79 | 13 | 2.0 | 2.0 | 0.00 | 0.00 | 0.00 | 84 | 1015.4 |
| 20260906043403 | 80 | 9 | 2.0 | 2.0 | 0.00 | 0.00 | 0.00 | 84 | 1015.4 |
| 20260906042351 | 80 | 14 | 2.0 | 3.0 | 0.00 | 0.00 | 0.00 | 84 | 1015.4 |
| 20260906041339 | 80 | 18 | 2.0 | 2.0 | 0.00 | 0.00 | 0.00 | 83 | 1015.4 |
| 20260906040338 | 81 | 16 | 1.0 | 2.0 | 0.00 | 0.00 | 0.00 | 83 | 1015.3 |
| 20260906035345 | 81 | 16 | 1.0 | 2.0 | 0.00 | 0.00 | 0.00 | 82 | 1015.2 |
| 20260906034332 | 81 | 20 | 2.0 | 2.0 | 0.00 | 0.00 | 0.00 | 82 | 1015.0 |
| 20260906033349 | 81 | 23 | 1.0 | 2.0 | 0.00 | 0.00 | 0.00 | 82 | 1014.8 |
| 20260906032336 | 81 | 40 | 1.0 | 2.0 | 0.00 | 0.00 | 0.00 | 82 | 1014.8 |
| 20260906031911 | 81 | 110 | 1.0 | 2.0 | 0.00 | 0.00 | 0.00 | 82 | 1014.9 |
| 20260906030342 | 82 | 30 | 1.0 | 2.0 | 0.00 | 0.00 | 0.00 | 81 | 1014.8 |
| 20260906025346 | 82 | 31 | 1.0 | 2.0 | 0.00 | 0.00 | 0.00 | 81 | 1014.7 |
| 20260906024334 | 83 | 23 | 1.0 | 2.0 | 0.00 | 0.00 | 0.00 | 80 | 1014.6 |
| 20260906023332 | 83 | 23 | 2.0 | 3.0 | 0.00 | 0.00 | 0.00 | 79 | 1014.4 |
| 20260906022338 | 83 | 50 | 1.0 | 3.0 | 0.00 | 0.00 | 0.00 | 78 | 1014.3 |
| 20260906021345 | 84 | 46 | 1.0 | 3.0 | 0.00 | 0.00 | 0.00 | 77 | 1014.1 |
| 20260906020344 | 84 | 26 | 1.0 | 3.0 | 0.00 | 0.00 | 0.00 | 76 | 1013.9 |
| 20260906015333 | 84 | 55 | 2.0 | 3.0 | 0.00 | 0.00 | 0.00 | 75 | 1013.7 |
| 20260906014338 | 85 | 101 | 1.0 | 3.0 | 0.00 | 0.00 | 0.00 | 74 | 1013.5 |
| 20260906013335 | 85 | 49 | 2.0 | 3.0 | 0.00 | 0.00 | 0.00 | 73 | 1013.4 |
| 20260906012340 | 85 | 105 | 1.0 | 2.0 | 0.00 | 0.00 | 0.00 | 72 | 1013.3 |
| 20260906011348 | 86 | 33 | 1.0 | 2.0 | 0.00 | 0.00 | 0.00 | 70 | 1013.4 |
| 20260906010345 | 87 | 70 | 1.0 | 2.0 | 0.00 | 0.00 | 0.00 | 68 | 1013.3 |
| 20260906005332 | 88 | 76 | 1.0 | 2.0 | 0.00 | 0.00 | 0.00 | 65 | 1013.2 |
| 20260906004338 | 90 | 89 | 1.0 | 3.0 | 0.00 | 0.00 | 0.00 | 63 | 1013.2 |
| 20260906003339 | 91 | 94 | 2.0 | 4.0 | 0.00 | 0.00 | 0.00 | 60 | 1013.1 |
| 20260906002346 | 92 | 98 | 2.0 | 3.0 | 0.00 | 0.00 | 0.00 | 58 | 1013.3 |
| 20260906002141 | 93 | 83 | 2.0 | 4.0 | 0.00 | 0.00 | 0.00 | 57 | 1013.2 |
| 20260906000333 | 94 | 96 | 2.0 | 5.0 | 0.00 | 0.00 | 0.00 | 56 | 1013.2 |
| 20260905235643 | 94 | 108 | 3.0 | 6.0 | 0.00 | 0.00 | 0.00 | 55 | 1013.3 |
| 20260905234339 | 95 | 103 | 3.0 | 5.0 | 0.00 | 0.00 | 0.00 | 54 | 1013.3 |
| 20260905233353 | 97 | 82 | 4.0 | 7.0 | 0.00 | 0.00 | 0.00 | 52 | 1013.2 |
| 20260905231338 | 98 | 101 | 3.0 | 6.0 | 0.00 | 0.00 | 0.00 | 51 | 1013.1 |
| 20260905230338 | 98 | 97 | 3.0 | 7.0 | 0.00 | 0.00 | 0.00 | 50 | 1013.0 |
| 20260905225344 | 98 | 63 | 5.0 | 6.0 | 0.00 | 0.00 | 0.00 | 49 | 1013.0 |
| 20260905224332 | 97 | 75 | 3.0 | 6.0 | 0.00 | 0.00 | 0.00 | 50 | 1012.9 |
| 20260905223334 | 97 | 98 | 3.0 | 10.0 | 0.00 | 0.00 | 0.00 | 50 | 1012.9 |
| 20260905222338 | 97 | 76 | 4.0 | 7.0 | 0.00 | 0.00 | 0.00 | 50 | 1012.9 |
| 20260905221402 | 99 | 102 | 5.0 | 8.0 | 0.00 | 0.00 | 0.00 | 46 | 1012.9 |
| 20260905214336 | 99 | 77 | 5.0 | 9.0 | 0.00 | 0.00 | 0.00 | 46 | 1012.8 |
| 20260905213412 | 99 | 52 | 3.0 | 6.0 | 0.00 | 0.00 | 0.00 | 47 | 1013.0 |
| 20260905212332 | 99 | 75 | 4.0 | 8.0 | 0.00 | 0.00 | 0.00 | 45 | 1013.2 |
| 20260905211338 | 100 | 41 | 4.0 | 9.0 | 0.00 | 0.00 | 0.00 | 45 | 1013.3 |
| 20260905210356 | 100 | 121 | 4.0 | 8.0 | 0.00 | 0.00 | 0.00 | 44 | 1013.3 |
| 20260905205336 | 101 | 49 | 2.0 | 5.0 | 0.00 | 0.00 | 0.00 | 45 | 1013.4 |
| 20260905204403 | 102 | 156 | 2.0 | 4.0 | 0.00 | 0.00 | 0.00 | 43 | 1013.8 |
| 20260905202349 | 103 | 242 | 1.0 | 2.0 | 0.00 | 0.00 | 0.00 | 41 | 1014.1 |
| 20260905201337 | 102 | 78 | 2.0 | 3.0 | 0.00 | 0.00 | 0.00 | 42 | 1014.3 |
| 20260905200352 | 102 | 222 | 0.0 | 2.0 | 0.00 | 0.00 | 0.00 | 42 | 1014.3 |
| 20260905195332 | 103 | 184 | 2.0 | 3.0 | 0.00 | 0.00 | 0.00 | 42 | 1014.3 |
| 20260905194337 | 103 | 132 | 1.0 | 4.0 | 0.00 | 0.00 | 0.00 | 44 | 1014.5 |
| 20260905193910 | 104 | 176 | 3.0 | 6.0 | 0.00 | 0.00 | 0.00 | 42 | 1014.7 |
| 20260905191336 | 103 | 184 | 2.0 | 6.0 | 0.00 | 0.00 | 0.00 | 43 | 1014.9 |
| 20260905190354 | 103 | 105 | 2.0 | 4.0 | 0.00 | 0.00 | 0.00 | 41 | 1015.0 |
| 20260905185414 | 102 | 125 | 1.0 | 3.0 | 0.00 | 0.00 | 0.00 | 42 | 1015.2 |
| 20260905184343 | 102 | 255 | 2.0 | 4.0 | 0.00 | 0.00 | 0.00 | 42 | 1015.2 |
| 20260905183341 | 101 | 125 | 2.0 | 4.0 | 0.00 | 0.00 | 0.00 | 45 | 1015.3 |
| 20260905182349 | 101 | 169 | 2.0 | 3.0 | 0.00 | 0.00 | 0.00 | 48 | 1015.3 |
| 20260905181334 | 100 | 173 | 2.0 | 3.0 | 0.00 | 0.00 | 0.00 | 49 | 1015.4 |
| 20260905180332 | 101 | 214 | 1.0 | 2.0 | 0.00 | 0.00 | 0.00 | 47 | 1015.6 |
| 20260905175341 | 101 | 193 | 1.0 | 3.0 | 0.00 | 0.00 | 0.00 | 48 | 1015.7 |
| 20260905174407 | 101 | 201 | 1.0 | 3.0 | 0.00 | 0.00 | 0.00 | 45 | 1015.8 |
| 20260905173341 | 101 | 208 | 2.0 | 3.0 | 0.00 | 0.00 | 0.00 | 47 | 1015.8 |
| 20260905172350 | 101 | 211 | 1.0 | 3.0 | 0.00 | 0.00 | 0.00 | 45 | 1015.8 |
| 20260905171337 | 101 | 194 | 1.0 | 3.0 | 0.00 | 0.00 | 0.00 | 47 | 1015.9 |
| 20260905170352 | 101 | 205 | 2.0 | 4.0 | 0.00 | 0.00 | 0.00 | 46 | 1016.0 |
| 20260905165351 | 101 | 183 | 2.0 | 3.0 | 0.00 | 0.00 | 0.00 | 47 | 1015.9 |
| 20260905164338 | 99 | 188 | 2.0 | 4.0 | 0.00 | 0.00 | 0.00 | 49 | 1015.8 |
| 20260905163352 | 98 | 75 | 2.0 | 4.0 | 0.00 | 0.00 | 0.00 | 50 | 1015.9 |
| 20260905162352 | 98 | 64 | 1.0 | 4.0 | 0.00 | 0.00 | 0.00 | 51 | 1016.0 |
| 20260905161332 | 96 | 150 | 1.0 | 3.0 | 0.00 | 0.00 | 0.00 | 53 | 1016.1 |
| 20260905160351 | 97 | 50 | 2.0 | 4.0 | 0.00 | 0.00 | 0.00 | 51 | 1016.1 |
| 20260905155339 | 96 | 179 | 1.0 | 4.0 | 0.00 | 0.00 | 0.00 | 52 | 1016.1 |
| 20260905154346 | 96 | 196 | 0.0 | 3.0 | 0.00 | 0.00 | 0.00 | 53 | 1015.9 |
| 20260905153344 | 96 | 238 | 2.0 | 4.0 | 0.00 | 0.00 | 0.00 | 52 | 1015.9 |
| 20260905152410 | 96 | 208 | 1.0 | 3.0 | 0.00 | 0.00 | 0.00 | 54 | 1015.8 |
| 20260905151337 | 95 | 223 | 0.0 | 3.0 | 0.00 | 0.00 | 0.00 | 55 | 1015.7 |
| 20260905150333 | 95 | 188 | 1.0 | 2.0 | 0.00 | 0.00 | 0.00 | 53 | 1015.5 |
| 20260905145340 | 94 | 238 | 0.0 | 1.0 | 0.00 | 0.00 | 0.00 | 55 | 1015.4 |
| 20260905144348 | 93 | 110 | 1.0 | 2.0 | 0.00 | 0.00 | 0.00 | 60 | 1015.4 |
| 20260905143645 | 90 | 201 | 0.0 | 0.0 | 0.00 | 0.00 | 0.00 | 68 | 1015.2 |
| 20260905141343 | 88 | 215 | 0.0 | 0.0 | 0.00 | 0.00 | 0.00 | 74 | 1015.2 |
| 20260905140340 | 86 | 215 | 0.0 | 0.0 | 0.00 | 0.00 | 0.00 | 77 | 1015.1 |
| 20260905135343 | 84 | 204 | 0.0 | 0.0 | 0.00 | 0.00 | 0.00 | 83 | 1015.2 |
| 20260905134356 | 82 | 170 | 0.0 | 0.0 | 0.00 | 0.00 | 0.00 | 90 | 1015.3 |